Regional Weather Roundup
Issued by NWS Charleston, WV

Home | Current Version | Previous Version | Graphics & Text | Print | Product List | Glossary On
Versions: 1 2 3 4 5 6 7 8 9 10 11 12 13 14 15 16 17 18 19 20 21 22 23 24 25 26 27
000
ASUS41 KRLX 291110
RWRRLX
West Virginia Regional Weather Roundup
National Weather Service Charleston WV
700 AM EDT FRI APR 29 2016

Note: "fair" indicates few or no clouds below 12,000 feet with no
significant weather and/or obstructions to visibility.

WVZ003-291200-
Northern Panhandle of West Virginia

CITY           SKY/WX    TMP DP  RH WIND       PRES   REMARKS
WHEELING       FOG       47  45  93 NW3       29.97R VSB 1/4
$$

WVZ009-291200-
Northwest West Virginia

CITY           SKY/WX    TMP DP  RH WIND       PRES   REMARKS
PARKERSBURG    FOG       53  52  96 CALM      30.01R VSB 1/4
$$

WVZ006-291200-
Western West Virginia

CITY           SKY/WX    TMP DP  RH WIND       PRES   REMARKS
HUNTINGTON     FOG       57  56  96 SW5       30.00R VSB 1/2
$$

WVZ015-291200-
West Central West Virginia

CITY           SKY/WX    TMP DP  RH WIND       PRES   REMARKS
CHARLESTON     CLOUDY    60  57  89 SW7       29.99R FOG
$$

WVZ022-031-291200-
North Central West Virginia

CITY           SKY/WX    TMP DP  RH WIND       PRES   REMARKS
CLARKSBURG     CLOUDY    58  57  97 SW7       29.97R
MORGANTOWN     FOG       52  49  89 CALM      29.98R VSB 1/4
$$

WVZ025-035-042-045-291200-
Southern West Virginia

CITY           SKY/WX    TMP DP  RH WIND       PRES   REMARKS
BECKLEY          N/A     54  52  93 SW3       30.03R
LOGAN          NOT AVBL
BLUEFIELD        N/A     54  48  80 W7        30.05R
LEWISBURG        N/A     54  52  94 CALM      30.01R
$$

WVZ047-291200-
Northern Mountains of West Virginia

CITY           SKY/WX    TMP DP  RH WIND       PRES   REMARKS
ELKINS         MOCLDY    57  52  83 NW7       29.99R
$$

WVZ052-291200-
Eastern Panhandle of West Virginia

CITY           SKY/WX    TMP DP  RH WIND       PRES   REMARKS
MARTINSBURG    CLOUDY    45  44  97 CALM      30.02S FOG
PETERSBURG     CLOUDY    49  48  98 CALM      30.02R FOG
$$




USA.gov is the U.S. government's official web portal to all federal, state and local government web resources and services.